Location: Chippewa Lake
(41.0698°N, 81.9010°W)
Time: 13:41:32
(UTC+00:00)

Spot 2 Rocket - Pass Details

Date: 29 September 2021
Orbit: 758 x 771 km, 98.5° (Epoch: 23 October)

Event Time Altitude Azimuth Distance (km) Brightness Sun altitude
Exits shadow 02:46:06 14° 353° (N) 2,028 6.1 -38.5°
Drops below altitude 10° 02:46:47 10° 352° (N) 2,297 6.4 -38.6°
Sets 02:49:07 0° 350° (N) 3,228 7.3 -38.9°
